Location: Cañada de la Miga
(34.7595°N, 106.2317°W)
Time: 11:25:42
(UTC+00:00)

Transit 4A - Pass Details

Date: 14 December 2021
Orbit: 863 x 981 km, 66.8° (Epoch: 26 January)

Event Time Altitude Azimuth Distance (km) Brightness Sun altitude
Rises 00:47:30 0° 236° (WSW) 3,451 12.7 -10.7°
Reaches altitude 10° 00:50:18 10° 248° (WSW) 2,529 11.8 -11.2°
Maximum altitude 00:55:16 28° 307° (NW) 1,612 9.5 -12.2°
Drops below altitude 10° 01:00:22 10° 5° (N) 2,601 10.0 -13.2°
Sets 01:03:18 0° 17° (NNE) 3,567 10.6 -13.7°
Enters shadow 01:03:21 - 17° (NNE) 3,582 10.6 -13.7°
